Provo, UT

4:17 AM MST on November 22, 2019 (GMT -0700)
Provo Municipal

Weather History for KPVU - September, 2019

Change the Weather History Date:

Saturday, September 21, 2019

  Actual Average Record
Temperature  
Mean Temperature 52 °F -  
Max Temperature 64 °F 72 °F 87 °F (2001)
Min Temperature 41 °F 44 °F 32 °F (2004)
Degree Days  
Heating Degree Days 13    
Growing Degree Days 2 (Base 50)    
Moisture  
Dew Point 38 °F    
Average Humidity 65    
Maximum Humidity 93    
Minimum Humidity 34    
Precipitation  
Precipitation 0.00 in - - ()
Sea Level Pressure  
Sea Level Pressure 30.13 in    
Wind  
Wind Speed 4 mph (WSW)    
Max Wind Speed 10 mph    
Max Gust Speed -    
Visibility 10 miles    
Events      
Averages and records for this station are not official NWS values.
T = Trace of Precipitation, MM = Missing Value Source: NWS Daily Summary

Daily Weather History Graph

Daily Weather History Graph

Search for Another Location

Airport or City:

Astronomy

Sep. 21, 2019 Rise Set
Actual Time 7:13 AM MDT 7:25 PM MDT
Civil Twilight 6:46 AM MDT 7:52 PM MDT
Nautical Twilight 6:14 AM MDT 8:24 PM MDT
Astronomical Twilight 5:41 AM MDT 8:57 PM MDT
Moon No Moon Rise 2:23 PM MDT (9/21)
Length of Visible Light 13h 06m
Length of Day
12h 12m
Waning Gibbous, 54% of the Moon is Illuminated
Sep 21
Waning Gibbous
Sep 21
Last Quarter
Sep 28
New
Oct 5
First Quarter
Oct 13
Full

Hourly Weather History & Observations

Time (MDT) Temp. Windchill Dew Point Humidity Pressure Visibility Wind Dir Wind Speed Gust Speed Precip Events Conditions
12:56 AM 42.1 °F 40.2 °F 39.9 °F 92% 30.12 in 10.0 mi SE 3.5 mph - N/A   Clear
1:56 AM 42.1 °F 39.2 °F 39.0 °F 89% 30.12 in 10.0 mi SSE 4.6 mph - N/A   Clear
2:56 AM 41.0 °F - 39.0 °F 93% 30.12 in 10.0 mi Calm Calm - N/A   Clear
3:56 AM 41.0 °F 38.0 °F 37.0 °F 86% 30.12 in 10.0 mi SSE 4.6 mph - N/A   Clear
4:56 AM 42.1 °F - 39.0 °F 89% 30.13 in 10.0 mi Calm Calm - N/A   Clear
5:56 AM 43.0 °F - 37.9 °F 82% 30.13 in 10.0 mi Calm Calm - N/A   Clear
6:56 AM 41.0 °F 38.0 °F 39.0 °F 93% 30.16 in 10.0 mi NNE 4.6 mph - N/A   Mostly Cloudy
7:56 AM 44.1 °F 42.5 °F 37.9 °F 79% 30.17 in 10.0 mi South 3.5 mph - N/A   Scattered Clouds
8:56 AM 46.0 °F 44.8 °F 41.0 °F 83% 30.19 in 10.0 mi South 3.5 mph - N/A   Scattered Clouds
9:56 AM 50.0 °F - 41.0 °F 71% 30.19 in 10.0 mi SE 4.6 mph - N/A   Clear
9:58 AM 50.0 °F - 41.0 °F 71% 30.19 in 10.0 mi SE 4.6 mph - N/A   Scattered Clouds
10:56 AM 53.1 °F - 39.9 °F 61% 30.17 in 10.0 mi South 3.5 mph - N/A   Scattered Clouds
11:56 AM 55.0 °F - 42.1 °F 62% 30.16 in 10.0 mi SW 5.8 mph - N/A   Scattered Clouds
12:56 PM 57.0 °F - 39.0 °F 51% 30.14 in 10.0 mi SW 6.9 mph - N/A   Scattered Clouds
1:56 PM 59.0 °F - 37.0 °F 44% 30.13 in 10.0 mi West 4.6 mph - N/A   Scattered Clouds
2:56 PM 61.0 °F - 39.0 °F 44% 30.11 in 10.0 mi WNW 8.1 mph - N/A   Scattered Clouds
3:56 PM 62.1 °F - 33.1 °F 34% 30.08 in 10.0 mi NNW 4.6 mph - N/A   Scattered Clouds
4:56 PM 63.0 °F - 34.0 °F 34% 30.07 in 10.0 mi NNW 5.8 mph - N/A   Scattered Clouds
5:56 PM 63.0 °F - 35.1 °F 35% 30.06 in 10.0 mi NW 6.9 mph - N/A   Scattered Clouds
6:56 PM 60.1 °F - 37.9 °F 44% 30.08 in 10.0 mi NW 6.9 mph - N/A   Scattered Clouds
7:56 PM 59.0 °F - 37.0 °F 44% 30.08 in 10.0 mi NNW 9.2 mph - N/A   Partly Cloudy
8:56 PM 57.0 °F - 37.9 °F 49% 30.10 in 10.0 mi NNW 10.4 mph - N/A   Clear
9:56 PM 55.0 °F - 39.0 °F 55% 30.11 in 10.0 mi NNW 9.2 mph - N/A   Clear
10:56 PM 48.0 °F - 37.9 °F 68% 30.13 in 10.0 mi Calm Calm - N/A   Clear
11:56 PM 46.9 °F - 39.0 °F 74% 30.13 in 10.0 mi Calm Calm - N/A   Clear